OCO62T EBOS-EBOS

Flight info

Callsign OCO62T
Flight time N/A
Altitude 3000
Route KOK
Aircraft DA62/L-SDFGRY/C

Departure

Time 2026-05-07 20:58
Airport Ostend-Bruges International Airport (EBOS)

Arrival

Time N/A
Airport Ostend-Bruges International Airport (EBOS)
Time Latitude Longitude Altitude Speed Heading
2026-05-07 20:49 51.19923 2.85576 18 ft 0 kts 219°
2026-05-07 20:55 51.19877 2.85556 18 ft 9 kts 173°
2026-05-07 20:55 51.19857 2.85508 18 ft 6 kts 262°
2026-05-07 20:55 51.19848 2.85438 18 ft 7 kts 255°
2026-05-07 20:55 51.19835 2.85355 18 ft 8 kts 251°
2026-05-07 20:56 51.19806 2.85307 18 ft 0 kts 216°
2026-05-07 20:56 51.19801 2.85301 18 ft 6 kts 215°
2026-05-07 20:56 51.19718 2.85262 17 ft 14 kts 155°
2026-05-07 20:57 51.19670 2.85345 16 ft 10 kts 74°
2026-05-07 20:57 51.19726 2.85710 17 ft 63 kts 77°
2026-05-07 20:57 51.19858 2.86599 74 ft 94 kts 77°
2026-05-07 20:57 51.20018 2.87675 312 ft 101 kts 75°
2026-05-07 20:58 51.20489 2.88354 789 ft 94 kts 19°
2026-05-07 20:58 51.21198 2.88263 978 ft 119 kts 349°
2026-05-07 20:58 51.22076 2.87901 1009 ft 143 kts 339°
2026-05-07 20:58 51.22710 2.86642 1116 ft 155 kts 283°
2026-05-07 20:59 51.22612 2.84915 1055 ft 162 kts 257°
2026-05-07 20:59 51.22364 2.83127 874 ft 171 kts 256°
2026-05-07 20:59 51.21558 2.82105 65 ft 132 kts 164°
2026-05-07 20:59 51.20854 2.82047 0 ft 76 kts 239°